Spokane, WA
on Sunday, February 10, 2013

Sunday
Previous Day Next Day
Daily Summary
 ActualAverageRecord
Temperature
Mean Temperature °F 32°F  
Max Temperature 33°F 38°F 55°F (1963)
Min Temperature 21°F 26°F -6°F (1929)
Degree Days
Heating Degree Days 38 33  
Month to date heating degree days 322 332  
Since 1 July heating degree days 3990 4265  
Cooling Degree Days 0 0  
Month to date cooling degree days 0 0  
Year to date cooling degree days 0 0  
Moisture
Dew Point 25°F   
Average Humidity 88    
Maximum Humidity 100    
Minimum Humidity 75    
Precipitation
Precipitation 0.00 in 0.05 in 0.59 in (1961)
Month to date precipitation 0.04 0.47  
Year to date precipitation 1.67 2.26  
Snow
Snow 0.00 in 0.20 in 3.10 in (1904)
Month to date snowfall 0.3 2.7  
Since 1 July snowfall 38.5 36.2  
Snow Depth 0.00 in   
Wind
Wind Speed 1 mph   
Max Wind Speed 7 mph   
Max Gust Speed 9 mph   
Visibility 5 miles   
Events Fog   

Key: T is trace of precipitation, MM is missing value
Source: NWS Daily Summary
Time(PST)TemperatureDew PointHumidity Pressure Visibility Wind DirectionWind SpeedGust SpeedPrecipitationEvents Conditions
12:29 AM 21.2°F 19.4°F 93% 30.16 in 1.0 miles Calm Calm - N/A   Scattered Clouds
12:53 AM 21.9°F 19.9°F 92% 30.24 in 0.2 miles Calm Calm - N/A Fog Light Freezing Fog
1:53 AM 21.9°F 21.0°F 96% 30.25 in 1.0 miles Calm Calm - N/A   Mostly Cloudy
2:24 AM 24.8°F 21.2°F 86% 30.17 in 2.5 miles Calm Calm - N/A   Mostly Cloudy
2:37 AM 24.8°F 21.2°F 86% 30.17 in 0.5 miles Calm Calm - N/A   Mostly Cloudy
2:53 AM 26.1°F 23.0°F 88% 30.25 in 0.5 miles NE 3.5 mph - N/A   Overcast
3:53 AM 26.1°F 24.1°F 92% 30.25 in 0.5 miles ENE 4.6 mph - N/A   Overcast
4:26 AM 26.6°F 24.8°F 93% 30.18 in 0.5 miles NE 4.6 mph - N/A   Overcast
4:53 AM 25.0°F 24.1°F 96% 30.26 in 0.2 miles Calm Calm - N/A Fog Light Freezing Fog
5:24 AM 24.8°F 23.0°F 93% 30.18 in 0.1 miles Calm Calm - N/A Fog Light Freezing Fog
5:53 AM 25.0°F 23.0°F 92% 30.26 in 0.1 miles NNE 3.5 mph - N/A Fog Light Freezing Fog
6:53 AM 26.1°F 23.0°F 88% 30.28 in 0.1 miles Calm Calm - N/A Fog Light Freezing Fog
7:53 AM 27.0°F 23.0°F 85% 30.30 in 0.1 miles Calm Calm - N/A Fog Light Freezing Fog
8:53 AM 28.0°F 24.1°F 85% 30.30 in 0.1 miles Calm Calm - N/A Fog Light Freezing Fog
9:53 AM 30.0°F 26.1°F 85% 30.31 in 0.2 miles Calm Calm - N/A Fog Light Freezing Fog
10:18 AM 30.2°F 26.6°F 86% 30.24 in 0.5 miles NE 4.6 mph - N/A   Overcast
10:53 AM 30.9°F 28.0°F 89% 30.31 in 1.5 miles NE 3.5 mph - N/A   Mostly Cloudy
11:22 AM 30.2°F 28.4°F 93% 30.23 in 3.0 miles NE 3.5 mph - N/A   Overcast
11:53 AM 30.9°F 28.0°F 89% 30.30 in 3.0 miles NE 3.5 mph - N/A   Overcast
12:39 PM 30.2°F 26.6°F 86% 30.22 in 10.0 miles SSE 3.5 mph - N/A   Overcast
12:53 PM 30.0°F 27.0°F 88% 30.30 in 10.0 miles South 3.5 mph - N/A   Overcast
1:53 PM 30.9°F 27.0°F 85% 30.29 in 10.0 miles Calm Calm - N/A   Overcast
2:53 PM 32.0°F 27.0°F 82% 30.27 in 10.0 miles Calm Calm - N/A   Overcast
3:53 PM 33.1°F 27.0°F 78% 30.26 in 10.0 miles SE 3.5 mph - N/A   Overcast
4:53 PM 32.0°F 27.0°F 82% 30.27 in 10.0 miles ESE 5.8 mph - N/A   Mostly Cloudy
5:26 PM 32.0°F 26.6°F 80% 30.19 in 10.0 miles SE 3.5 mph - N/A   Mostly Cloudy
5:35 PM 32.0°F 26.6°F 80% 30.19 in 10.0 miles SSE 5.8 mph - N/A   Mostly Cloudy
5:53 PM 32.0°F 26.1°F 79% 30.27 in 10.0 miles SSE 3.5 mph - N/A   Mostly Cloudy
6:37 PM 30.2°F 26.6°F 86% 30.20 in 10.0 miles Calm Calm - N/A   Mostly Cloudy
6:53 PM 30.0°F 26.1°F 85% 30.28 in 10.0 miles Calm Calm - N/A   Overcast
7:34 PM 28.4°F 24.8°F 86% 30.20 in 10.0 miles WNW 3.5 mph - N/A   Scattered Clouds
7:53 PM 28.9°F 25.0°F 85% 30.27 in 10.0 miles Calm Calm - N/A   Partly Cloudy
8:53 PM 28.0°F 24.1°F 85% 30.27 in 8.0 miles Calm Calm - N/A   Partly Cloudy
9:37 PM 26.6°F 23.0°F 86% 30.18 in 8.0 miles Calm Calm - N/A   Mostly Cloudy
9:53 PM 27.0°F 24.1°F 89% 30.26 in 8.0 miles Calm Calm - N/A   Mostly Cloudy
10:07 PM 26.6°F 24.8°F 93% 30.18 in 8.0 miles Calm Calm - N/A   Partly Cloudy
10:53 PM 27.0°F 23.0°F 85% 30.26 in 7.0 miles Calm Calm - N/A   Partly Cloudy
11:53 PM 27.0°F 24.1°F 89% 30.24 in 10.0 miles Calm Calm - N/A   Partly Cloudy
Moon Phase
Feb. 10 Feb. 17 Feb. 25 Mar. 04 Mar. 11
Sunrise:07:03 AM (PST) Moon Rise:06:50 AM (PST)2/10
Sunset:05:06 PM (PST) Moon Set:06:10 PM (PST)2/10

Copyright © 2014 The Weather Underground, Inc.